Home   Weather   Speyer   Past weeks

Flag for Germany Past Weather in Speyer, Rhineland-Palatinate, Germany — Yesterday and Last 2 Weeks

Now
55 °F

Sunny.


Feels Like: 55 °F
Forecast: 52 / 66 °F
Wind: No wind

Location: Mannheim City

Current Time: Sep 25, 2016 at 9:12:24 AM

Latest Report: Sep 25, 2016 at 8:50 AM


Visibility: 10 mi

Pressure: 30.15 "Hg

Humidity: 94%

Dew Point: 54 °F

Location of SpeyerLocation

Past Weather in Speyer — Graph

°F

Speyer Temperature Yesterday

Maximum temperature yesterday: 73 °F (at 2:50 PM)
Minimum temperature yesterday: 48 °F (at 7:50 AM)
Average temperature yesterday: 67 °F

High & Low Weather Summary for the Past Weeks

 TemperatureHumidityPressure
High91 °F (Sep 13, 4:50 PM)100% (Sep 10, 7:20 AM)30.33 "Hg (Sep 10, 7:20 AM)
Low45 °F (Sep 22, 5:50 AM)24% (Sep 14, 4:50 PM)29.80 "Hg (Sep 15, 5:50 AM)
Average69 °F64%30.04 "Hg
* Reported Sep 10 7:20 AM — Sep 25 7:50 AM, Speyer, Weather by CustomWeather, © 2016

Note: Actual official high and low records may vary slightly from our data, if they occured in-between our weather recording intervals... More about our weather records

Advertising

Speyer Weather History for the Previous 24 Hours

Scroll right to see more
 ConditionsComfort  
Time TempWeatherWind HumidityBarometerVisibility
7:50 AM
Sun, Sep 25
50 °FClear.2 mph100%30.15 "Hg5 mi
7:20 AM48 °FSunny.1 mph100%30.15 "Hg10 mi
7:20 PM
Sat, Sep 24
68 °FClear.3 mph46%30.18 "Hg10 mi
6:50 PM72 °FPassing clouds.5 mph38%30.18 "HgN/A
6:20 PM73 °FSunny.6 mph36%30.18 "Hg10 mi
5:50 PM73 °FPassing clouds.6 mph38%30.18 "HgN/A
5:20 PM73 °FPassing clouds.7 mph38%30.21 "HgN/A
4:50 PM73 °FPassing clouds.7 mph38%30.21 "HgN/A
4:20 PM73 °FPassing clouds.7 mph38%30.21 "HgN/A
3:50 PM73 °FPassing clouds.6 mph36%30.24 "HgN/A
3:20 PM73 °FPassing clouds.7 mph38%30.24 "HgN/A
2:50 PM73 °FPassing clouds.9 mph41%30.24 "HgN/A
2:20 PM72 °FPassing clouds.7 mph41%30.27 "HgN/A
1:50 PM72 °FPassing clouds.6 mph44%30.27 "HgN/A
1:20 PM72 °FPassing clouds.6 mph47%30.27 "HgN/A
12:50 PM70 °FPassing clouds.6 mph50%30.30 "HgN/A
12:20 PM68 °FPassing clouds.6 mph53%30.30 "HgN/A
11:50 AM66 °FSunny.3 mph60%30.30 "Hg10 mi
11:20 AM64 °FSunny.2 mph64%30.30 "Hg10 mi
10:50 AM63 °FSunny.1 mph64%30.33 "Hg10 mi
10:20 AM59 °FSunny.2 mph72%30.33 "Hg10 mi
9:50 AM57 °FSunny.1 mph82%30.33 "Hg10 mi
9:20 AM55 °FSunny.1 mph88%30.33 "Hg10 mi
Weather by CustomWeather, © 2016

See weather overviewHow to use our weather pages